Location: Shenandoah County Park
(38.9356°N, 78.4524°W)
Time: 08:57:35
(UTC-05:00)

Vanguard 2 Rocket - Pass Details

Date: 04 December 2023
Orbit: 555 x 3309 km, 32.9° (Epoch: 02 March)

Event Time Altitude Azimuth Distance (km) Brightness Sun altitude
Rises 20:07:08 0° 281° (W) 7,298 12.4 -37.3°
Reaches altitude 10° 20:12:26 10° 277° (W) 6,221 11.8 -38.4°
Maximum altitude 20:30:07 47° 212° (SSW) 3,263 9.6 -41.8°
Enters shadow 20:34:39 39° 174° (S) 3,247 9.4 -42.7°
Drops below altitude 10° 20:42:04 10° 143° (SE) 4,299 - -44.1°
Sets 20:45:01 0° 137° (SE) 4,967 - -44.7°
